Location: Saint-Palais-sur-Mer
(45.6429°N, 1.0859°W)
Time: 16:11:42
(UTC+01:00)

S-56A Canister/Altair - Pass Details

Date: 15 February 2026
Orbit: 633 x 2484 km, 38.9° (Epoch: 16 March)

Event Time Altitude Azimuth Distance (km) Brightness Sun altitude
Exits shadow 03:36:48 36° 116° (ESE) 2,532 10.1 -46.0°
Drops below altitude 10° 03:43:40 10° 102° (ESE) 4,504 11.7 -45.0°
Sets 03:47:52 0° 99° (E) 5,738 12.5 -44.4°
